Regional Weather Roundup
Issued by NWS

Home | Current Version | Previous Version | Text Only | Print | Product List | Glossary Off
Versions: 1 2 3 4 5 6 7 8 9 10 11 12 13 14 15 16 17 18 19 20 21 22 23 24 25 26 27 28 29 30 31 32 33 34 35 36 37 38 39 40 41 42 43 44 45 46 47 48 49 50

431
ASUS45 KBOU 290207
RWRCO

WEATHER ROUNDUP FOR COLORADO
NATIONAL WEATHER SERVICE DENVER/BOULDER CO
800 PM MDT WED JUN 28 2017

NOTE: "FAIR" INDICATES FEW OR NO CLOUDS BELOW 12000 FEET WITH NO
SIGNIFICANT WEATHER AND/OR OBSTRUCTIONS TO VISIBILITY.

COZ001>005-013-030-031-290300-
...NORTHWEST COLORADO...

CITY           SKY/WX    TMP DP  RH WIND       PRES   REMARKS
CRAIG          FAIR      78  22  12 VRB6      29.90R
HAYDEN         FAIR      75  27  16 NW17G25   29.94R
MEEKER         FAIR      81  16   9 W14       29.91R
RABBIT EARS PA FAIR      54  27  35 SW7G16    30.25F
STEAMBOAT SPGS FAIR      73  31  21 CALM      29.95S
WALDEN         MOCLDY    66  25  20 W24G41    30.12R
$$

COZ006>008-011-290300-
...WEST CENTRAL VALLEYS...

CITY           SKY/WX    TMP DP  RH WIND       PRES   REMARKS
GRAND JUNCTION FAIR      88  16   7 W7        29.77R
MONTROSE       FAIR      87   8   5 SW13      29.88R
EAGLE          FAIR      81  23  11 W8        29.94R
RIFLE          FAIR      85  13   7 W8        29.82R
DELTA          FAIR      92   2   3 SW13G24   29.81R
NUCLA          FAIR      88   3   4 W14       29.94R
$$

COZ017>023-064>068-290300-
...SOUTHWEST COLORADO...

CITY           SKY/WX    TMP DP  RH WIND       PRES   REMARKS
DURANGO        FAIR      82   3   5 W14G21    30.00S
CORTEZ         FAIR      84  13   7 SW8       29.94R
PAGOSA SPRINGS FAIR      78  -3   4 W9G17     30.11R
TELLURIDE      FAIR      72   8   8 SW7       30.22R
WOLF CREEK PAS FAIR      54   9  16 SW20G31   30.46S
$$

COZ009-010-012-014-032>034-037-058>063-290300-
...CENTRAL COLORADO...

CITY           SKY/WX    TMP DP  RH WIND       PRES   REMARKS
ASPEN          FAIR      75  16  10 NW15      30.03S
BUENA VISTA    FAIR      73  14  10 CALM      30.06R
COPPER MTN     FAIR      59  16  18 W13G18    30.40S
BERTHOUD PASS  MOCLDY    45  32  61 NW10      30.43S
COTTONWOOD PAS FAIR      70   0   6 W7G20     30.22R
GUNNISON       FAIR      74  21  13 W12G22    30.05R
KREMMLING      FAIR      79  27  14 CALM      30.02R
LEADVILLE      MOCLDY    64  14  14 W12G24    30.22R
MONARCH PASS   FAIR      57  14  18 W33G46    30.50R
SALIDA         FAIR      80  15   9 W12       30.09R
SUNLIGHT       FAIR      59  19  21 SW10G20   30.30R
WILKERSON PASS FAIR      59  12  15 SW6G17    30.36R
$$

COZ069>075-290300-
...SAN LUIS VALLEY/SANGRE DE CRISTO MOUNTAINS...

CITY           SKY/WX    TMP DP  RH WIND       PRES   REMARKS
ALAMOSA        FAIR      75  18  11 W16G22    30.03R
DEL NORTE      FAIR      75  19  12 SW13G20   30.07S
LA VETA PASS   FAIR      63  18  17 MISG      30.35S
SAGUACHE       FAIR      77  18  10 N14G20    30.05R
$$

COZ035-036-038>040-290300-
...NORTHERN COLORADO FRONT RANGE...

CITY           SKY/WX    TMP DP  RH WIND       PRES   REMARKS
DENVER INTL AP MOCLDY    75  45  34 E15       29.86R
DMNS CITY PARK   N/A     81  39  22 E6        29.85R
AURORA         MOCLDY    77  41  27 E14       29.89R
FRONT RANGE AP FAIR      77  43  29 E10G26    29.89R
ERIE MUNI ARPT FAIR      79  39  24 NW5       29.84R
BOULDER MUN AP FAIR      81  36  19 S5        29.85R
CENTENNIAL     MOCLDY    79  40  24 E7        29.89R
BROOMFIELD     FAIR      81  37  21 CALM      29.88S
FORT COLLINS   FAIR      77  46  33 SW3       29.83R
LONGMONT       FAIR      79  48  33 W3        29.85R
$$

COZ041-046-047-076>085-087-088-290300-
...PIKES PEAK/PALMER DIVIDE AND SOUTHERN FOOTHILLS...

CITY           SKY/WX    TMP DP  RH WIND       PRES   REMARKS
COLO. SPRINGS  FAIR      78  38  23 SE8       29.91R
A. F. ACADEMY  FAIR      78  36  21 N8        29.94R
SCHRIEVER AFB  FAIR      77  35  21 E6        29.91R
CHEYENNE MTN   MOCLDY    76  34  21 S10       29.91R
ELLICOTT       FAIR     N/A N/A N/A SE12G18   29.88R
FALCON           N/A     75  34  22 SE3       29.98R
FORT CARSON    FAIR      80  37  20 CALM      29.86R
LIMON          CLOUDY    79  44  28 E14G23    29.88R
MONUMENT HILL  FAIR      70  41  35 SW12      30.00R
CANON CITY     CLEAR     88  39  18 MISG      29.81S
WALSENBURG     FAIR      81  27  13 SW8       29.88R
TRINIDAD       FAIR      83  32  16 W10       29.85R
$$

COZ042>045-048>051-090-091-290300-
...NORTHEAST COLORADO...

CITY           SKY/WX    TMP DP  RH WIND       PRES   REMARKS
GREELEY ARPT   FAIR      79  43  27 E7        29.81R
AKRON          MOCLDY    75  43  31 E5        29.84S THUNDER
BURLINGTON     FAIR      79  53  40 E10       29.82R
WRAY           FAIR      81  45  28 SE12      29.79F
YUMA           RAIN      70  55  60 NE10      29.82R
STERLING       FAIR      77  50  38 S6        29.77R
HOLYOKE        NOT AVBL
FORT MORGAN    FAIR      76  43  30 SE12      29.82F
$$

COZ086-089-092>099-290300-
...SOUTHEAST COLORADO...

CITY           SKY/WX    TMP DP  RH WIND       PRES   REMARKS
PUEBLO         FAIR      88  41  19 SE16G22   29.74S
LA JUNTA       FAIR      88  46  23 SE15      29.73S
LAMAR          FAIR      87  50  27 E7        29.70S
SPRINGFIELD      N/A     81  55  40 SE12      29.78S
$$




USA.gov is the U.S. government's official web portal to all federal, state and local government web resources and services.